This demonstration page uses our WeatherBlox Daily Observations layout. Learn more.

Left ArrowRight Arrow

Hourly Observations for December 20, 2019

Temp ( °F °C ) Dew Point ( °F °C ) Humidity (%) Winds ( mph kmh ) Pressure ( in mb ) Visibility ( mi km ) Precip ( " mm )
12:52 am 00:52 Cloudy 33 0.6 26 -3.3 75 75 SE 13 20 30.17 1022 10 16 0.00 0.00
1:52 am 01:52 Mostly Cloudy 31 -0.6 25 -3.9 79 79 SSE 13 20 30.17 1022 10 16 0.00 0.00
2:52 am 02:52 Mostly Cloudy 30 -1.1 24 -4.4 79 79 SSE 13 20 30.18 1022 10 16 0.00 0.00
3:52 am 03:52 Partly Cloudy 30 -1.1 24 -4.4 79 79 SSE 12 19 30.17 1022 10 16 0.00 0.00
4:52 am 04:52 Partly Cloudy 31 -0.6 23 -5 72 72 SSE 13 20 30.17 1022 10 16 0.00 0.00
5:52 am 05:52 Mostly Cloudy 32 0 24 -4.4 73 73 SSE 10 17 30.17 1022 10 16 0.00 0.00
6:52 am 06:52 Mostly Cloudy 32 0 24 -4.4 73 73 SSE 9 15 30.20 1023 10 16 0.00 0.00
7:52 am 07:52 Mostly Cloudy 30 -1.1 24 -4.4 79 79 SE 10 17 30.21 1023 10 16 0.00 0.00
8:52 am 08:52 Mostly Cloudy 33 0.6 25 -3.9 72 72 SSE 8 13 30.23 1024 10 16 0.00 0.00
9:52 am 09:52 Mostly Cloudy 36 2.2 25 -3.9 64 64 SSE 7 11 30.24 1024 10 16 0.00 0.00
10:52 am 10:52 Mostly Cloudy 38 3.3 26 -3.3 62 62 S 7 11 30.25 1024 10 16 0.00 0.00
11:52 am 11:52 Partly Cloudy 43 6.1 25 -3.9 49 49 SW 10 17 30.22 1023 10 16 0.00 0.00
12:52 pm 12:52 Partly Cloudy 45 7.2 24 -4.4 44 44 SW 9 15 30.20 1023 10 16 0.00 0.00
1:52 pm 13:52 Mostly Sunny 47 8.3 23 -5 39 39 SSW 6 9 30.19 1022 10 16 0.00 0.00
2:52 pm 14:52 Mostly Sunny 48 8.9 23 -5 37 37 SW 5 7 30.20 1023 10 16 0.00 0.00
3:52 pm 15:52 Mostly Sunny 47 8.3 24 -4.4 41 41 WSW 6 9 30.23 1024 10 16 0.00 0.00
4:52 pm 16:52 Sunny 39 3.9 25 -3.9 57 57 NW 8 13 30.24 1024 10 16 0.00 0.00
5:52 pm 17:52 Clear 37 2.8 26 -3.3 65 65 Calm 30.27 1025 10 16 0.00 0.00
6:52 pm 18:52 Clear 34 1.1 24 -4.4 67 67 Calm 30.28 1025 10 16 0.00 0.00
7:52 pm 19:52 Clear 28 -2.2 25 -3.9 88 88 Calm 30.31 1026 10 16 0.00 0.00
8:52 pm 20:52 Clear 28 -2.2 23 -5 81 81 Calm 30.29 1026 10 16 0.00 0.00
9:52 pm 21:52 Clear 28 -2.2 25 -3.9 88 88 Calm 30.30 1026 10 16 0.00 0.00
10:52 pm 22:52 Clear 26 -3.3 22 -5.6 84 84 Calm 30.30 1026 10 16 0.00 0.00
11:52 pm 23:52 Clear 26 -3.3 23 -5 88 88 Calm 30.30 1026 10 16 0.00 0.00

Powered by AerisWeather